Flag for U.S.A. Weather past 2 weeks in Daly City, California, U.S.A.

Now
56 °F

Light rain. Fog.


Feels Like: 55 °F
Forecast: 54 / 62 °F
Wind: 5 mph from Southeast

Location: San Francisco International Airport

Current Time: Dec 19, 2014 at 7:24:34 AM

Latest Report: Dec 19, 2014 at 6:56 AM


Visibility: 5 mi

Pressure: 30.11 "Hg

Humidity: 97%

Dew point: 55 °F

Location of Daly CityLocation

Historic Weather in Daly City — Graph

°F

Daly City temperature yesterday

Maximum temperature yesterday: 59 °F (at 2:56 PM)
Minimum temperature yesterday: 52 °F (at 1:56 AM)
Average temperature yesterday: 56 °F

Past Weeks' High & Low Weather Summary

 TemperatureHumidityPressure
High67 °F (Dec 4, 2:56 PM)100% (Dec 4, 8:00 PM)30.23 "Hg (Dec 4, 8:00 PM)
Low49 °F (Dec 13, 3:56 AM)65% (Dec 16, 1:56 PM)29.51 "Hg (Dec 11, 6:56 AM)
Average58 °F91%30.01 "Hg
* Reported Dec 4 5:56 AM — Dec 19 5:56 AM, Daly City, Weather by CustomWeather, © 2014

Note: Actual official high and low records may vary slightly from our data, if they occured in-between our weather recording intervals... More about our weather records

Advertising

Daly City weather history for previous 24 hours

 ConditionsComfort  
Time TempWeatherWind HumidityBarometerVisibility
5:56 AM
Dec 19
55 °FLight rain. Mostly cloudy.6 mph100%30.11 "Hg8 mi
4:56 AM55 °FMostly cloudy.6 mph96%30.12 "Hg9 mi
3:56 AM56 °FLight rain. Fog.7 mph97%30.14 "Hg6 mi
2:56 AM56 °FMostly cloudy.8 mph90%30.13 "Hg10 mi
1:56 AM56 °FOvercast.9 mph87%30.15 "Hg10 mi
12:56 AM57 °FMostly cloudy.10 mph83%30.15 "Hg10 mi
11:56 PM
Dec 18
57 °FPassing clouds.8 mph83%30.16 "Hg10 mi
10:56 PM57 °FPartly cloudy.3 mph83%30.17 "Hg10 mi
9:56 PM57 °FPartly cloudy.No wind90%30.16 "Hg10 mi
8:56 PM56 °FPartly cloudy.No wind93%30.14 "Hg10 mi
7:56 PM57 °FPartly cloudy.5 mph93%30.15 "Hg10 mi
6:56 PM58 °FPassing clouds.No wind87%30.14 "Hg10 mi
5:56 PM59 °FPartly cloudy.5 mph78%30.14 "Hg10 mi
4:56 PM59 °FMostly cloudy.No wind78%30.14 "Hg10 mi
3:56 PM59 °FBroken clouds.No wind84%30.13 "Hg10 mi
2:56 PM59 °FBroken clouds.No wind84%30.13 "Hg10 mi
1:56 PM58 °FPartly sunny.5 mph87%30.13 "Hg10 mi
12:56 PM58 °FPartly sunny.3 mph84%30.14 "Hg10 mi
11:56 AM57 °FPartly sunny.3 mph83%30.16 "Hg10 mi
10:56 AM56 °FOvercast.No wind84%30.19 "Hg10 mi
9:56 AM55 °FBroken clouds.No wind87%30.17 "Hg10 mi
8:56 AM54 °FPartly sunny.3 mph90%30.14 "Hg10 mi
7:56 AM53 °FPartly sunny.5 mph89%30.12 "Hg10 mi
Weather by CustomWeather, © 2014

See weather overviewHow to use our weather pages